Location: Buckland
(65.9785°N, 161.1281°W)
Time: 06:12:11
(UTC+00:00)

Transit 2A Rocket - Pass Details

Date: 04 December 2020
Orbit: 592 x 910 km, 66.7° (Epoch: 21 January)

Event Time Altitude Azimuth Distance (km) Brightness Sun altitude
Exits shadow 13:32:10 22° 73° (ENE) 1,619 7.1 -38.1°
Drops below altitude 10° 13:33:55 10° 68° (ENE) 2,253 8.1 -37.9°
Sets 13:36:12 0° 65° (ENE) 3,127 9.1 -37.7°
